Miscellaneous Local Product
Issued by NWS Hastings, NE

Home | Current Version | Previous Version | Text Only | Print | Product List | Glossary On
Versions: 1 2 3 4 5 6 7 8 9 10 11 12 13 14 15 16 17 18 19 20 21 22 23 24 25 26 27 28 29 30 31 32 33 34 35 36 37 38 39 40 41 42 43 44 45 46 47 48 49 50
000
AXUS43 KGID 191302
MISGRI

GID CWA HOURLY WEATHER ROUNDUP
NATIONAL WEATHER SERVICE HASTINGS NE
800 AM CDT TUE SEP 19 2017

NOTE: "FAIR" INDICATES FEW OR NO CLOUDS BELOW 12,000 FEET WITH NO
SIGNIFICANT WEATHER AND/OR OBSTRUCTIONS TO VISIBILITY.

...SOUTH CENTRAL NEBRASKA...

CITY           SKY/WX    TMP DP  RH WIND       PRES   REMARKS
GRAND ISLAND   CLEAR     63  63 100 SE9       29.75F
HASTINGS       CLEAR     64  62  93 SE7       29.76F
KEARNEY        CLEAR     61  60  97 SE7       29.73F FOG
ORD            PTCLDY    60  58  92 SE7       29.71F FOG
YORK           CLEAR     64  63  94 SE6       29.78S FOG
AURORA         CLEAR     62  62 100 SE7       29.77S FOG
LEXINGTON      CLEAR     61  60  94 E7        29.70F FOG
HOLDREGE       CLEAR     64  62  93 SE9       29.72F FOG
HEBRON         CLEAR     67  65  95 SE6       29.78S

...NEBRASKA PANHANDLE...

CITY           SKY/WX    TMP DP  RH WIND       PRES   REMARKS
CHADRON        CLOUDY    63  47  55 SW9       29.59R
ALLIANCE       CLOUDY    54  52  93 S8        29.65F
SCOTTSBLUFF    CLOUDY    54  50  86 E7        29.65F
SIDNEY         CLOUDY    50  47  89 NW3       29.69R

...WESTERN AND NORTH CENTRAL NEBRASKA...

CITY           SKY/WX    TMP DP  RH WIND       PRES   REMARKS
VALENTINE      CLOUDY    64  59  83 E6        29.64F
AINSWORTH      CLEAR     60  60  99 S8        29.68F
ONEILL         FOG       62  62 100 SE10      29.72S VSB 1
BROKEN BOW     CLEAR     60  59  96 SE6       29.70F
IMPERIAL       CLOUDY    63  60  90 S10       29.68S
NORTH PLATTE   CLEAR     64  62  93 SE8       29.68F
MCCOOK         CLEAR     66  64  93 S17       29.67F

...EASTERN NEBRASKA...

CITY           SKY/WX    TMP DP  RH WIND       PRES   REMARKS
NORFOLK        CLOUDY    65  64  97 SE13      29.77S FOG
SO SIOUX CITY  CLOUDY    67  67 100 SE10      29.80F FOG
TEKAMAH        CLOUDY    67  65  93 SE8       29.81S FOG
COLUMBUS       CLEAR     66  64  93 SE7       29.79F
ALBION         FOG       63  63  99 SE8       29.76F VSB 1/2
OMAHA EPPLEY   CLOUDY    68  65  90 SE12      29.83S FOG
OFFUTT AFB     CLOUDY    68  65  93 SE10      29.83R
MILLARD        CLOUDY    69  67  94 SE8       29.83S FOG
LINCOLN        CLEAR     68  65  90 SE10      29.81S
NEBRASKA CITY  CLOUDY    66  66 100 SE9       29.85R FOG
BEATRICE       CLEAR     67  65  94 SE7       29.81S
FALLS CITY     CLEAR     66  65  96 SE6       29.84S FOG

...NORTHERN KANSAS...

CITY           SKY/WX    TMP DP  RH WIND       PRES   REMARKS
GOODLAND       CLEAR     60  59  96 S12       29.71F FOG
HILL CITY      CLEAR     67  64  90 CALM      29.73S
NORTON         SUNNY     68  61  77 SE10G17   29.71
PHILLIPSBURG   CLEAR     64  64 100 E8        29.73S FOG
SMITH CENTER   CLEAR     63  63 100 E9        29.75F FOG
HAYS           CLEAR     69  63  81 S14       29.74S
RUSSELL        CLEAR     68  63  84 S18       29.74S
CONCORDIA      CLEAR     67  66  97 SE8       29.78S
SALINA         CLEAR     74  65  73 S16G23    29.79S
TOPEKA         PTCLDY    67  67 100 E5        29.86S



USA.gov is the U.S. government's official web portal to all federal, state and local government web resources and services.